Regional Weather Roundup
Issued by NWS Upton, NY

Current Version | Previous Version | Text Only | Print | Product List | Glossary On
Versions: 1 2 3 4 5 6 7 8 9 10 11 12 13 14 15 16 17 18 19 20 21 22 23 24 25 26 27 28 29 30 31 32 33 34 35 36 37 38 39 40 41 42 43 44 45 46 47 48 49 50
314 ASUS41 KOKX 250705 RWROKX Regional Weather Roundup National Weather Service New York NY 300 AM EDT FRI MAY 25 2018 Note: "FAIR" indicates few or no clouds below 12,000 feet with no significant weather and/or obstructions to visibility. NYZ071-072-176-178-NJZ106-104-250800- New York City Metro Area CITY SKY/WX TMP DP RH WIND PRES REMARKS Central Park FAIR 67 49 52 W5 30.09F Bronx Bot Gard N/A 68 46 45 NW3 30.08R Bronx Lehman C N/A 68 48 49 W7 N/A LaGuardia Arpt FAIR 70 48 45 SW13 30.05F Queens College N/A 68 48 49 SW8 N/A Kennedy Intl FAIR 62 52 69 SW9 30.08F Breezy Point N/A 61 N/A N/A W6 N/A Brooklyn Coll N/A 66 48 52 SW9 N/A Staten Island N/A 64 50 59 SW6 N/A Newark/Liberty FAIR 66 48 52 SW12 30.06F Teterboro FAIR 64 50 60 SW3 30.05F $$ NYZ177-179-078>081-250800- Long Island New York CITY SKY/WX TMP DP RH WIND PRES REMARKS Jones Beach N/A 59 N/A N/A W6 N/A Wantagh N/A 63 50 63 SW5 N/A Hempstead N/A 66 48 52 SW3 30.09F Matinecock Pt N/A 68 N/A N/A SW10 N/A Farmingdale FAIR 60 47 61 SW6 30.06F MacArthur/ISP FAIR 61 48 62 SW7 30.06F Stony Brook N/A 64 46 52 W2 N/A Shirley FAIR 62 52 69 SW6 30.06F Mt Sinai Harb N/A N/A N/A N/A SW7 N/A Westhampton FAIR 59 52 77 SW8 30.08F East Hampton FAIR 54 50 86 SW3 30.06F Southold N/A 55 48 76 SW3 N/A Montauk N/A 54 52 93 SW6 30.06F $$ NYZ052-065-067-250800- Hudson Valley CITY SKY/WX TMP DP RH WIND PRES REMARKS White Plains FAIR 62 47 57 W3 30.05F Larchmont Harb N/A 63 N/A N/A S9 N/A Croton On Huds N/A 63 N/A N/A MISG N/A Somers N/A 61 48 63 SW2 N/A Brewster N/A 52 48 87 N1 N/A Newburgh CLEAR 63 50 63 W6 30.06F Montgomery FAIR 55 51 86 SW3 30.04F Otisville N/A 57 52 82 S2 N/A Warwick N/A 52 52 100 E3 N/A Suffern N/A 61 52 72 S1 N/A Poughkeepsie FAIR 53 50 89 CALM 30.03F Albany FAIR 57 47 69 CALM 30.00F $$ NJZ001-105-106-008-010-013-015-019>022-104-250800- New Jersey CITY SKY/WX TMP DP RH WIND PRES REMARKS Newark/Liberty FAIR 66 48 52 SW12 30.06F Teterboro FAIR 64 50 60 SW3 30.05F Caldwell FAIR 64 50 60 SW3 30.06F Somerville FAIR 53 53 100 CALM 30.06F Linden FAIR 65 47 51 CALM 30.08S Perth Amboy N/A 63 N/A N/A W8 N/A Sussex FAIR 51 51 100 CALM 30.07F Andover N/A 56 54 93 CALM 30.08F Trenton FAIR 61 50 67 S3 30.08F Millville FAIR 55 54 96 CALM 30.11F Atlantic City FAIR 60 55 83 CALM 30.11F Wrightstown FAIR 57 52 84 CALM 30.07 Toms River FAIR 59 54 83 SW6 30.10F Belmar FAIR 60 51 72 SW7 30.10F $$ PAZ047>061-062-071-250800- Eastern Pennsylvania CITY SKY/WX TMP DP RH WIND PRES REMARKS Philadelphia FAIR 63 56 78 S3 30.10F Allentown FAIR 58 52 80 NW5 30.08F Scranton FAIR 55 51 86 SE3 30.08F $$ CTZ002-004>006-009-010-012-RIZ004-006-007-MAZ004-011-015-250800- Southern New England In CT CITY SKY/WX TMP DP RH WIND PRES REMARKS Bradley Intl FAIR 53 51 93 S8 30.03F Hartford FAIR 54 50 86 S6 30.04F Danbury FAIR 51 49 92 CALM 30.07F Wtrbury/Oxford FAIR 53 49 86 CALM 30.06F Norwalk Harbor N/A 63 N/A N/A W5 N/A Bridgeport FAIR 57 52 83 CALM 30.05F Meriden FAIR 50 49 96 CALM 30.05F New Haven FAIR 53 51 93 CALM 30.05F Chester FAIR 50 50 100 CALM 30.05F Groton FOG 51 51 100 CALM 30.05F VSB 1/4 Willimantic FAIR 50 48 93 CALM 30.05F In RI CITY SKY/WX TMP DP RH WIND PRES REMARKS Providence FAIR 50 48 93 S5 30.05F Block Island FAIR 54 53 97 S12 30.06F Westerly FOG 52 52 100 CALM 30.06F VSB 1/2 In MA CITY SKY/WX TMP DP RH WIND PRES REMARKS Boston FAIR 55 48 77 SW12 29.99F Worcester FAIR 54 45 71 W14 30.02F Westfield FAIR 52 52 100 CALM 30.02F Provincetown FAIR 52 50 93 S17G23 30.02F Nantucket FOG 52 52 100 SW13 30.07F VSB 1/4 $$ ANZ330-335-338-340-345-350-353-355-250800- Coastal Marine Observations STATION/POSITION TIME SKY/WX TEMP WIND PRES VSBY WAVE AIR SEA DIR/SP/G HT/PER (UTC) (F) (DEG/KT/KT) (MB) (MI) (FT/S) NY Harb Entrance 0650 60 56 250/ 8/ 10 1018.5 2/ 8 20 S Fire Island 0650 59 54 230/ 14/ 16 1018.3 2/ 4 23 SSW Montauk P 0650 57 55 230/ 14/ 16 1018.2 2/ 4 15 E Barnegat Li 0630 59 N/A 2/ 7 Hudson Canyon 0650 57 54 210/ 8/ 8 1019.0 2/ 8 Kings Point 0636 61 240/ 7/ 8 1018.9 Execution Rocks NOT AVBL Western LI Sound 0620 64 230/ 10/ 12 N/A 0 Central LI Sound 0615 61 220/ 4/ 4 N/A 1 Robbins Reef 0624 67 260/ 16/ 17 1018.7 $$ >>>>>>>>>>>>>>>>>>>>>>>>>>>> KEY <<<<<<<<<<<<<<<<<<<<<<<<<<< > < > SKY/WX - Sky Condition/Present Weather < > TMP - Temperature in Fahrenheit < > DP - Dew Point in Fahrenheit < > RH - Relative Humidity in Percent < > WIND - Direction (from) and Speed in MPH < > PRES - Mean Sea Level Pressure (inches of Hg) < > WCI - Wind Chill Index < > VSB - Visibility in Miles < > HX - Heat Index < > TC - Temperature in Celsius < > VRB - Varibale Wind Direction < > < >>>>>>>>>>>>>>>>>>>>>>>>>>>> KEY <<<<<<<<<<<<<<<<<<<<<<<<<<<

USA.gov is the U.S. government's official web portal to all federal, state and local government web resources and services.